Location: DARK SKY Beskydy - Park tmavé oblohy, www.darkskybeskydy.cz
(49.4926°N, 18.5016°E)
Time: 04:39:04
(UTC+02:00)

A-11 Canister half - Pass Details

Date: 28 February 2024
Orbit: 1513 x 1686 km, 47.2° (Epoch: 24 April)

Event Time Altitude Azimuth Distance (km) Brightness Sun altitude
Rises 08:35:49 0° 288° (WNW) 4,872 11.1 17.5°
Reaches altitude 10° 08:40:22 10° 270° (W) 3,849 10.7 18.0°
Maximum altitude 08:46:04 17° 234° (SW) 3,246 10.7 18.8°
Drops below altitude 10° 08:51:41 10° 197° (SSW) 3,756 11.4 19.5°
Sets 08:56:05 0° 179° (S) 4,705 12.2 20.0°
